Location: Hickory_CSC
(35.7330°N, 81.3330°W)
Time: 00:37:40
(UTC-04:00)

Cosmos 1356 Rocket - Visible Passes

Search period start: 29 July 2014 00:00
Search period end: 08 August 2014 00:00
Orbit: 549 x 609 km, 81.2° (Epoch: 28 July)

Date Brightness Start Highest point End Pass type
(mag) Time Alt. Az. Time Alt. Az. Time Alt. Az.
29 Jul 4.4 03:41:35 45° ENE 03:41:35 45° ENE 03:44:51 10° NNE visible
30 Jul 4.2 03:46:32 49° NNE 03:46:32 49° NNE 03:49:36 10° NNE visible
31 Jul 4.4 03:51:28 42° N 03:51:28 42° N 03:54:16 10° N visible
01 Aug 4.8 03:56:23 32° NNW 03:56:23 32° NNW 03:58:50 10° N visible
02 Aug 6.5 02:24:57 10° NE 02:24:57 10° NE 02:25:03 10° NE visible
02 Aug 5.2 04:01:16 23° NW 04:01:16 23° NW 04:03:18 10° NNW visible
03 Aug 6.3 02:29:49 13° NE 02:29:49 13° NE 02:30:25 10° NE visible
03 Aug 5.5 04:06:08 17° NW 04:06:08 17° NW 04:07:37 10° NNW visible
04 Aug 6.3 02:34:40 15° NE 02:34:40 15° NE 02:35:29 10° NNE visible
04 Aug 5.8 04:10:59 13° NW 04:10:59 13° NW 04:11:42 10° NNW visible
05 Aug 6.2 02:39:30 16° NNE 02:39:30 16° NNE 02:40:24 10° NNE visible
06 Aug 6.2 02:44:19 16° NNE 02:44:19 16° NNE 02:45:12 10° NNE visible
07 Aug 6.2 02:49:06 15° N 02:49:06 15° N 02:49:53 10° N visible
